ORBCOMM FM110 (41182 NORAD) Tracking and Keplerian Element Data

This shows tracking and keplerian element data for the satellite.

Feedback or suggestion? Click here.




ElementValue
Catalog41182
NameORBCOMM FM110
Epoch Orbit46822
Epoch Day286.63468105
Epoch Year2024
RAAN14.7558
Inclination47.0022
Eccentricity2.38E-05
Argument of Perigee50.3581
Mean Anonmoly309.7325
Mean Motion14.57214384
Decay Rate4.907E-05
L11 41182U 15081D 24286.63468105 .00004907 00000+0 11120-2 0 9992
L22 41182 47.0022 14.7558 0000238 50.3581 309.7325 14.57214384468228



Live tracking and technical data element details for ORBCOMM FM110 (NORAD 41182). ORBCOMM FM110 can be tracked NOW for your location showing map with azimuth and elevation plus other details from your city location.







IsCatalogInMostPopularTable: catalog: 41182, numindb: 604
Update: records affected: 1



GetName: 41182 ORBCOMM FM110

Hit Count: updated at: Wed, 04 Dec 2024 13:24:46 GMT